Weather Roundup
Issued by NWS Springfield, MO

Home | Current Version | Previous Version | Text Only | Print | Product List | Glossary On
Versions: 1 2 3 4 5 6 7 8 9 10 11 12 13 14 15 16 17 18 19 20 21 22 23 24 25 26 27 28 29 30 31 32 33 34 35 36 37 38 39 40 41 42 43 44 45 46 47 48 49 50
000
NZUS99 KSGF 160007
HRRSGF

HOURLY WEATHER
NATIONAL WEATHER SERVICE SPRINGFIELD MO
700 PM CDT MON SEP 15 2014

......SGF CWA......

CITY           SKY/WX    TMP DP  RH WIND       PRES   REMARKS
SPRINGFIELD    CLOUDY    76  67  73 N15       30.10R
6HR MIN TEMP:  76; 6HR MAX TEMP:  86;

JOPLIN         FOG       71  69  93 N12       30.12R VSB 1
6HR MIN TEMP:  71; 6HR MAX TEMP:  84; 6HR PCP:  0.69;

WEST PLAINS    CLEAR     76  66  71 SW5       30.10S
6HR MIN TEMP:  72; 6HR MAX TEMP:  80;

ROLLA          CLOUDY    68  65  90 N9        30.10R
6HR MIN TEMP:  68; 6HR MAX TEMP:  80;

OSAGE BEACH    CLOUDY    70  63  78 N8        30.12R
BRANSON        MOCLDY    79  66  65 SW5       30.12S

......SURROUNDING SGF CWA......

CITY           SKY/WX    TMP DP  RH WIND       PRES   REMARKS
CHANUTE        PTCLDY    71  62  73 NE9G20    30.13R
PARSONS        PTCLDY    73  64  73 N7G16     30.12R
COFFEYVILLE    MOCLDY    73  71  93 N12       30.09R
EMPORIA        CLOUDY    67  57  70 NE13      30.16R
GROVE OK       PTCLDY    81  68  65 S6        30.09F
ROGERS AR      PTCLDY    77  66  68 SW8       30.13S
SILOAM SPRINGS PTCLDY    77  64  65 SW3       30.13F
HARRISON AR    CLEAR     75  66  73 W3        30.12S
NEAR YELLVILLE CLEAR     77  66  69 SW5       30.09F

......KANSAS AND MISSOURI......

CITY           SKY/WX    TMP DP  RH WIND       PRES   REMARKS
KANSAS CTY INT MOCLDY    62  53  72 N10       30.19R
DOWNTOWN KC    CLOUDY    64  54  69 N12       30.18R
COLUMBIA       CLOUDY    65  60  84 N9        30.14R
SEDALIA        CLOUDY    66  60  81 N8        30.15R
ST JOSEPH      PTCLDY    61  51  70 NE9       30.21R
ST LOUIS       LGT RAIN  66  63  90 NW13      30.09R FOG
SPIRIT OF STL  LGT RAIN  66  63  90 N12       30.09R FOG
KIRKSVILLE     CLOUDY    59  52  77 N14G20    30.18R
WICHITA        PTCLDY    72  60  66 NE14      30.15R
TOPEKA         CLEAR     67  54  63 N13       30.19R
OLATHE         CLOUDY    64  57  78 N13       30.16R

......TENNESSEE......

CITY           SKY/WX    TMP DP  RH WIND       PRES   REMARKS
MEMPHIS        CLOUDY    77  63  61 SW3       30.09S
NASHVILLE      CLOUDY    69  63  81 SE5       30.10F

......ARKANSAS.......

CITY           SKY/WX    TMP DP  RH WIND       PRES   REMARKS
FAYETTEVILLE   CLEAR     75  68  78 SW7       30.13S
FT SMITH       CLOUDY    77  69  76 SW3       30.10F
LITTLE ROCK    CLOUDY    76  65  68 N6        30.12R

......OKLAHOMA.......

CITY           SKY/WX    TMP DP  RH WIND       PRES   REMARKS
TULSA          MOCLDY    83  66  56 S14       30.06S
PONCA CITY     MOCLDY    80  67  64 NE18      30.08R
MCALESTER      MOCLDY    77  70  79 S3        30.11S
OKLAHOMA CITY  MOCLDY    79  66  64 S6        30.11R

......IOWA............

CITY           SKY/WX    TMP DP  RH WIND       PRES   REMARKS
DES MOINES     MOCLDY    60  46  59 N5        30.21R
QUAD CITIES    CLOUDY    58  49  72 N9        30.16R

......ILLINOIS........

CITY           SKY/WX    TMP DP  RH WIND       PRES   REMARKS
QUINCY         CLOUDY    63  59  87 NW3       30.12R
CHICAGO        MOCLDY    57  51  80 NE8       30.11S



USA.gov is the U.S. government's official web portal to all federal, state and local government web resources and services.